Cullman, AL

2:30 PM CDT on June 22, 2017 (GMT -0500)
Cullman

Weather History for K3A1 - February, 2013

Change the Weather History Date:

Sunday, February 3, 2013

  Actual Average (KHSV) Record (KHSV)
Temperature  
Mean Temperature 42 °F -  
Max Temperature 55 °F 50 °F 77 °F (1927)
Min Temperature 30 °F 31 °F 3 °F (1951)
Degree Days  
Heating Degree Days 22    
Moisture  
Dew Point 30 °F    
Average Humidity 68    
Maximum Humidity 100    
Minimum Humidity 32    
Precipitation  
Precipitation 0.00 in - - ()
Sea Level Pressure  
Sea Level Pressure 30.13 in    
Wind  
Wind Speed 4 mph (West)    
Max Wind Speed 14 mph    
Max Gust Speed 22 mph    
Visibility 8 miles    
Events Fog    
Averages and records for this station are not official NWS values.
T = Trace of Precipitation, MM = Missing Value Source: NWS Daily Summary

Daily Weather History Graph

Daily Weather History Graph

Search for Another Location

Airport or City:

Trip Planner

Search our weather history database for the weather conditions in past years. The results will help you decide how hot, cold, wet, or windy it might be!

Date:

Astronomy

Feb. 03, 2013 Rise Set
Actual Time 6:43 AM CST 5:19 PM CST
Civil Twilight 6:17 AM CST 5:46 PM CST
Nautical Twilight 5:47 AM CST 6:15 PM CST
Astronomical Twilight 5:17 AM CST 6:45 PM CST
Moon 12:09 AM CST (2/3) 10:58 AM CST (2/3)
Length of Visible Light 11h 29m
Length of Day
10h 36m
Waning Gibbous, 48% of the Moon is Illuminated
Feb 3
Waning Gibbous
Feb 10
New
Feb 17
First Quarter
Feb 25
Full
Mar 4
Last Quarter

Hourly Weather History & Observations

Time (CST) Temp. Windchill Dew Point Humidity Pressure Visibility Wind Dir Wind Speed Gust Speed Precip Events Conditions
12:15 AM 33.1 °F - 33.1 °F 100% 30.17 in 0.2 mi Calm Calm - N/A Fog Fog
12:35 AM 31.3 °F - 31.3 °F 100% 30.17 in 0.2 mi Calm Calm - N/A Fog Light Freezing Fog
12:55 AM 30.6 °F 25.8 °F 30.6 °F 100% 30.17 in 0.2 mi SSW 4.6 mph - N/A Fog Light Freezing Fog
1:35 AM 32.2 °F 28.9 °F 32.2 °F 100% 30.16 in 0.2 mi SSW 3.5 mph - N/A Fog Fog
2:15 AM 32.9 °F - 32.9 °F 100% 30.16 in 0.2 mi Calm Calm - N/A Fog Fog
2:35 AM 33.1 °F 28.7 °F 33.1 °F 100% 30.16 in 0.2 mi SSW 4.6 mph - N/A Fog Fog
2:55 AM 33.4 °F 29.1 °F 33.4 °F 100% 30.15 in 0.5 mi SSW 4.6 mph - N/A Fog Fog
3:15 AM 33.4 °F - 33.4 °F 100% 30.14 in 3.0 mi Calm Calm - N/A   Overcast
3:55 AM 32.7 °F - 32.7 °F 100% 30.13 in 4.0 mi Calm Calm - N/A   Clear
4:15 AM 32.7 °F 28.3 °F 32.7 °F 100% 30.13 in 2.0 mi South 4.6 mph - N/A   Mist
4:35 AM 32.5 °F 28.1 °F 32.5 °F 100% 30.12 in 1.8 mi South 4.6 mph - N/A   Overcast
4:55 AM 32.7 °F 28.3 °F 32.7 °F 100% 30.13 in 0.8 mi SSW 4.6 mph - N/A   Overcast
5:15 AM 32.5 °F 27.1 °F 32.5 °F 100% 30.13 in 0.8 mi SSW 5.8 mph - N/A   Overcast
5:35 AM 32.9 °F 28.5 °F 32.9 °F 100% 30.13 in 7.0 mi SSW 4.6 mph - N/A   Scattered Clouds
5:55 AM 33.3 °F 27.9 °F 32.9 °F 99% 30.13 in 10.0 mi SW 5.8 mph - N/A   Clear
6:15 AM 33.8 °F 27.7 °F 33.1 °F 97% 30.12 in 10.0 mi SSW 6.9 mph - N/A   Clear
6:35 AM 34.0 °F 28.0 °F 33.1 °F 96% 30.12 in 10.0 mi SSW 6.9 mph - N/A   Clear
6:55 AM 34.2 °F 29.0 °F 32.9 °F 95% 30.12 in 10.0 mi SSW 5.8 mph - N/A   Clear
7:15 AM 34.5 °F 28.6 °F 33.1 °F 94% 30.12 in 10.0 mi SSW 6.9 mph - N/A   Clear
7:35 AM 35.8 °F 31.9 °F 33.3 °F 91% 30.13 in 10.0 mi WSW 4.6 mph - N/A   Clear
7:55 AM 36.7 °F 32.0 °F 33.4 °F 88% 30.13 in 10.0 mi WSW 5.8 mph - N/A   Clear
8:35 AM 39.7 °F 34.9 °F 34.9 °F 83% 30.14 in 10.0 mi WSW 6.9 mph - N/A   Clear
8:55 AM 42.1 °F 39.2 °F 35.6 °F 78% 30.14 in 10.0 mi WSW 4.6 mph - N/A   Clear
9:15 AM 43.5 °F 39.4 °F 35.6 °F 74% 30.14 in 10.0 mi West 6.9 mph - N/A   Clear
9:35 AM 45.3 °F 41.1 °F 35.4 °F 68% 30.14 in 10.0 mi West 8.1 mph - N/A   Clear
9:55 AM 47.3 °F - 33.6 °F 59% 30.15 in 10.0 mi West 8.1 mph 16.1 mph N/A   Clear
10:15 AM 48.0 °F - 32.7 °F 55% 30.15 in 10.0 mi West 8.1 mph 16.1 mph N/A   Clear
10:35 AM 48.6 °F - 31.3 °F 51% 30.14 in 10.0 mi WNW 11.5 mph 18.4 mph N/A   Clear
10:55 AM 49.3 °F - 30.7 °F 49% 30.14 in 10.0 mi WNW 11.5 mph 16.1 mph N/A   Clear
11:15 AM 50.2 °F - 30.0 °F 46% 30.13 in 10.0 mi WNW 12.7 mph 20.7 mph N/A   Clear
11:35 AM 50.9 °F - 27.5 °F 40% 30.12 in 10.0 mi WNW 13.8 mph 18.4 mph N/A   Clear
11:55 AM 52.2 °F - 28.0 °F 39% 30.11 in 10.0 mi WNW 5.8 mph 19.6 mph N/A   Clear
12:15 PM 52.9 °F - 27.9 °F 38% 30.11 in 10.0 mi NW 9.2 mph 17.3 mph N/A   Clear
12:35 PM 52.5 °F - 27.1 °F 38% 30.10 in 10.0 mi WNW 11.5 mph 19.6 mph N/A   Clear
12:55 PM 52.7 °F - 26.4 °F 36% 30.09 in 10.0 mi NW 12.7 mph 21.9 mph N/A   Clear
1:15 PM 53.2 °F - 27.0 °F 36% 30.09 in 10.0 mi NW 12.7 mph 18.4 mph N/A   Clear
1:35 PM 53.4 °F - 26.8 °F 36% 30.08 in 10.0 mi WNW 11.5 mph 19.6 mph N/A   Clear
1:55 PM 54.1 °F - 27.3 °F 36% 30.09 in 10.0 mi WNW 9.2 mph 19.6 mph N/A   Clear
2:15 PM 54.7 °F - 27.9 °F 36% 30.09 in 10.0 mi NW 6.9 mph - N/A   Clear
2:55 PM 55.4 °F - 28.9 °F 36% 30.09 in 10.0 mi NW 8.1 mph 18.4 mph N/A   Clear
3:15 PM 55.0 °F - 28.2 °F 36% 30.08 in 10.0 mi WNW 6.9 mph - N/A   Clear
3:35 PM 55.2 °F - 27.1 °F 34% 30.09 in 10.0 mi WNW 11.5 mph 19.6 mph N/A   Clear
3:55 PM 54.5 °F - 25.2 °F 32% 30.09 in 10.0 mi WNW 8.1 mph - N/A   Clear
4:15 PM 54.1 °F - 25.5 °F 33% 30.10 in 10.0 mi WNW 8.1 mph - N/A   Clear
4:35 PM 53.6 °F - 26.1 °F 35% 30.11 in 10.0 mi NW 8.1 mph - N/A   Clear
4:55 PM 52.3 °F - 26.6 °F 37% 30.10 in 10.0 mi NW 5.8 mph - N/A   Clear
5:15 PM 49.8 °F - 27.1 °F 41% 30.11 in 10.0 mi NW 8.1 mph - N/A   Clear
5:35 PM 48.6 °F - 26.6 °F 42% 30.12 in 10.0 mi NW 4.6 mph - N/A   Clear
5:55 PM 47.3 °F - 26.1 °F 44% 30.12 in 10.0 mi NW 4.6 mph - N/A   Clear
6:15 PM 46.4 °F 43.5 °F 25.9 °F 45% 30.13 in 10.0 mi NW 5.8 mph - N/A   Clear
6:35 PM 45.3 °F 42.3 °F 25.7 °F 46% 30.13 in 10.0 mi NNW 5.8 mph - N/A   Clear
6:55 PM 44.4 °F 42.9 °F 25.9 °F 48% 30.14 in 10.0 mi NW 3.5 mph - N/A   Clear
7:35 PM 43.3 °F - 25.7 °F 50% 30.14 in 10.0 mi Calm Calm - N/A   Clear
7:55 PM 41.4 °F - 26.1 °F 55% 30.14 in 10.0 mi Calm Calm - N/A   Clear
8:15 PM 39.7 °F - 26.4 °F 59% 30.15 in 10.0 mi Calm Calm - N/A   Clear
8:35 PM 39.0 °F - 26.4 °F 61% 30.15 in 10.0 mi Calm Calm - N/A   Clear
8:55 PM 36.3 °F - 27.3 °F 70% 30.16 in 10.0 mi Calm Calm - N/A   Clear
9:15 PM 34.9 °F - 27.5 °F 74% 30.16 in 10.0 mi Calm Calm - N/A   Clear
9:35 PM 34.0 °F - 27.7 °F 78% 30.16 in 10.0 mi Calm Calm - N/A   Clear
9:55 PM 34.0 °F - 27.5 °F 77% 30.16 in 10.0 mi Calm Calm - N/A   Clear
10:15 PM 35.1 °F - 27.1 °F 73% 30.16 in 10.0 mi Calm Calm - N/A   Clear
10:35 PM 33.1 °F - 27.0 °F 78% 30.16 in 10.0 mi Calm Calm - N/A   Clear
10:55 PM 32.4 °F - 27.0 °F 80% 30.15 in 10.0 mi Calm Calm - N/A   Clear
11:15 PM 32.0 °F 28.7 °F 27.1 °F 82% 30.15 in 10.0 mi NNE 3.5 mph - N/A   Clear
11:35 PM 31.8 °F - 26.8 °F 82% 30.14 in 10.0 mi Calm Calm - N/A   Clear
11:55 PM 30.4 °F - 26.8 °F 86% 30.13 in 10.0 mi Calm Calm - N/A   Clear